Terminal Aerodrome Forecast
Issued by NWS Chicago, IL

Home | Current Version | Previous Version | Text Only | Print | Product List | Glossary On
Versions: 1 2 3 4 5 6 7 8 9 10 11 12 13 14 15 16 17 18 19 20 21 22 23 24 25 26 27 28 29 30 31 32
000
FTUS43 KLOT 011100
TAFRFD
TAF
KRFD 011140Z 0112/0212 00000KT 4SM BR OVC003
     FM011600 23006KT 5SM BR OVC007
     FM011800 23007KT P6SM BKN025 BKN120
     FM012200 24009KT P6SM SCT030 SCT150
     FM020200 29012KT P6SM SKC
     FM020800 31007KT P6SM SKC=

USA.gov is the U.S. government's official web portal to all federal, state and local government web resources and services.